[[{"header":{"parameterUnit":"m.s-1","parameterCategory":1,"la1":30.2991,"la2":30.254,"lo1":-89.0895,"lo2":-89.0444,"dy":0.0017,"dx":0.0017,"nx":28,"ny":28,"refTime":"2023-10-25T09:00:00:Z","depth":0,"parameterNumber":2,"parameterNumberName":"U-component_of_WINDS"},"data":[0,0,0,0,0,0,0,0,0,0,0,0,0,0,0,0,0,0,0,0,0,0,0,0,0,0,0,0,0,0,0,0,0,0,0,0,0,0,0,0,0,0,0,0,0,0,0,0,0,0,0,0,0,0,0,0,0,0,-4.8312,-4.8313,0,-4.8457,-4.8459,-4.846,-4.8445,-4.8443,-4.844,-4.8438,-4.8588,-4.8594,-4.86,0,0,0,0,0,0,0,0,0,0,0,0,0,-4.8028,-4.8033,-4.8312,-4.8313,-4.8315,-4.8457,-4.8459,-4.8461,-4.8445,-4.8443,-4.844,-4.8437,-4.8586,-4.8594,-4.8601,0,0,0,0,0,0,0,0,0,0,0,0,0,-4.816,-4.8035,-4.8311,-4.8325,-4.8327,-4.8456,-4.8459,-4.8461,-4.8446,-4.8443,-4.8439,-4.8436,-4.8584,-4.8593,-4.8602,-4.8727,0,0,-4.863,-4.8634,0,0,0,0,0,0,0,0,-4.8152,-4.817,-4.8321,-4.8324,-4.8327,-4.8429,-4.8414,-4.8551,-4.8447,-4.8401,-4.8438,-4.8434,-4.8538,-4.8551,-4.8586,-4.8735,-4.8741,-4.8631,-4.8636,-4.864,-4.8643,0,0,0,0,0,0,0,-4.8143,-4.8164,-4.8369,-4.8323,-4.8327,-4.8326,-4.8341,-4.844,-4.8487,-4.8405,-4.8404,-4.8421,-4.8539,-4.8577,-4.8589,-4.8743,-4.8631,-4.8639,-4.8644,-4.8648,-4.901,-4.9014,0,0,0,0,0,0,-4.813,-4.8156,-4.8365,-4.8373,-4.823,-4.8334,-4.835,-4.84,-4.8486,-4.8496,-4.8424,-4.842,-4.8563,-4.8579,-4.8595,-4.8751,-4.864,-4.8649,-4.8654,-4.9006,-4.9011,-4.9016,0,0,0,0,0,0,-4.8124,-4.8149,-4.8359,-4.8265,-4.8292,-4.8342,-4.8398,-4.8405,-4.8442,-4.8501,-4.8509,-4.8453,-4.8561,-4.8582,-4.8696,-4.8756,-4.8653,-4.8661,-4.9002,-4.9008,-4.9014,-4.9063,0,0,0,0,0,0,-4.8116,-4.8147,-4.8193,-4.8266,-4.8297,-4.8456,-4.8402,-4.841,-4.8458,-4.8454,-4.853,-4.854,-4.856,-4.8683,-4.8705,-4.8767,-4.8669,-4.8996,-4.9004,-4.9012,-4.9056,-4.907,-4.9082,0,0,0,0,0,-4.8106,-4.8199,-4.8195,-4.822,-4.8355,-4.8459,-4.8476,-4.8497,-4.8463,-4.8511,-4.855,-4.8537,-4.8747,-4.8694,-4.872,-4.8785,-4.8993,-4.9002,-4.9011,-4.905,-4.9067,-4.9082,0,0,0,0,0,0,-4.813,-4.8209,-4.8205,-4.8324,-4.8386,-4.8456,-4.8516,-4.8513,-4.8585,-4.8578,-4.8602,-4.862,-4.8737,-4.8773,-4.8713,-4.8915,-4.8865,-4.888,-4.8886,-4.8903,-4.8916,-4.8904,-4.8676,0,0,0,0,0,-4.8149,-4.8226,-4.8292,-4.8391,-4.8422,-4.8465,-4.8511,-4.8522,-4.8586,-4.8612,-4.8659,-4.8722,-4.8804,-4.8855,-4.8932,-4.9063,-4.9082,-4.9121,-4.9134,-4.9144,-4.9156,-4.9234,-4.9253,-4.9046,-4.9046,-4.9046,0,0,-4.8189,-4.8242,-4.8289,-4.8397,-4.8446,-4.8527,-4.8486,-4.8572,-4.8634,-4.8625,-4.8736,-4.8775,-4.8848,-4.8972,-4.9029,-4.9006,-4.9219,-4.9156,-4.9164,-4.917,-4.9245,-4.9265,-4.9282,-4.9052,-4.9051,-4.905,0,0,-4.8304,-4.8351,-4.8441,-4.8493,-4.8568,-4.8597,-4.8619,-4.8692,-4.8717,-4.883,-4.8828,-4.8903,-4.904,-4.9094,-4.9139,-4.9285,-4.9278,-4.931,-4.9376,-4.9452,-4.9468,-4.9483,-4.9538,-4.9557,-4.9322,-4.9323,-4.9323,0,-4.8344,-4.8465,-4.8488,-4.8577,-4.8627,-4.8626,-4.872,-4.8769,-4.8865,-4.8901,-4.8874,-4.9052,-4.91,-4.924,-4.9277,-4.9313,-4.9342,-4.93,-4.9464,-4.9479,-4.9493,-4.9546,-4.9566,-4.9326,-4.9326,-4.9325,-4.9325,0,-4.8513,-4.8598,-4.8663,-4.8758,-4.8816,-4.8907,-4.8947,-4.9003,-4.9013,-4.9046,-4.9165,-4.9225,-4.9317,-4.9352,-4.936,-4.9496,-4.9479,-4.9458,-4.9408,-4.9516,-4.9566,-4.9586,-4.9331,-4.933,-4.9329,-4.9328,0,0,-4.8641,-4.8754,-4.8777,-4.8823,-4.891,-4.8977,-4.9072,-4.9163,-4.9212,-4.9282,-4.9363,-4.9484,-4.9467,-4.9519,-4.9535,-4.9601,-4.9718,-4.9573,-4.9575,-4.9599,-4.9876,-4.9892,-4.9914,-4.9716,-4.972,-4.9723,-4.9871,0,-4.8766,-4.893,-4.8958,-4.9104,-4.9185,-4.919,-4.9273,-4.9337,-4.9374,-4.945,-4.9491,-4.9577,-4.9546,-4.9579,-4.9645,-4.969,-4.9774,-4.968,-4.9794,-4.9798,-4.9775,-4.994,-4.9955,-5.0091,-4.989,-4.9894,-4.9896,0,-4.8931,-4.9007,-4.9162,-4.9244,-4.9279,-4.9353,-4.9443,-4.9515,-4.9591,-4.9613,-4.9676,-4.9686,-4.9788,-4.9737,-4.9881,-4.9816,-4.9866,-4.9896,-4.9902,-4.9912,-4.9852,-4.9956,-5.0135,-5.0156,-4.9927,-4.9924,-4.9922,0,-4.9012,-4.9153,-4.9265,-4.9304,-4.9402,-4.9455,-4.9499,-4.9571,-4.9627,-4.9706,-4.9744,-4.9834,-4.9884,-4.9955,-4.9992,-4.995,-5.0135,-5.0085,-5.0159,-5.0158,-5.0195,-5.0192,-5.0385,-5.0228,-5.0227,-5.0227,-5.0227,0,-4.9148,-4.9242,-4.9303,-4.9372,-4.9481,-4.9515,-4.9622,-4.9665,-4.9731,-4.9811,-4.9822,-4.9897,-4.9941,-5.0024,-5.0054,-5.0172,-5.0193,-5.0216,-5.0223,-5.0215,-5.0213,-5.0247,-5.0239,-5.0232,-5.0231,-5.023,-5.0229,0,-4.9254,-4.9298,-4.9421,-4.9507,-4.9531,-4.9608,-4.9682,-4.9751,-4.979,-4.9892,-4.9918,-4.9979,-5.0079,-5.0124,-5.0245,-5.0266,-5.0401,-5.04,-5.0375,-5.0377,-5.0449,-5.0443,-5.0671,-5.0704,-5.0524,-5.0526,-5.0527,0,-4.9337,-4.9411,-4.9506,-4.9561,-4.9606,-4.9694,-4.9752,-4.9791,-4.9851,-4.9948,-5.0007,-5.0107,-5.0189,-5.0349,-5.0406,-5.0501,-5.0504,-5.0578,-5.0518,-5.051,-5.0508,-5.0503,-5.0512,-5.0588,-5.059,-5.0591,-5.0592,0,-4.9482,-4.9502,-4.9584,-4.9678,-4.9747,-4.9822,-4.9895,-4.994,-4.9992,-5.006,-5.0163,-5.0227,-5.0354,-5.0455,-5.0556,-5.0604,-5.0609,-5.0612,-5.0634,-5.0626,-5.0609,-5.0622,-5.0405,-5.0605,-5.0604,-5.0603,-5.0602,-5.0602,-4.958,-4.9648,-4.9727,-4.9821,-4.9882,-4.9952,-5.0023,-5.0073,-5.0159,-5.0266,-5.0285,-5.0395,-5.0477,-5.0613,-5.0666,-5.0756,-5.0738,-5.0769,-5.0778,-5.0785,-5.0791,-5.0596,-5.0774,-5.0774,-5.0773,-5.0773,-5.0773,0,-4.9727,-4.978,-4.9866,-4.997,-5.0046,-5.0045,-5.0129,-5.0193,-5.029,-5.0365,-5.0447,-5.0569,-5.0669,-5.0737,-5.0839,-5.0899,-5.0904,-5.0924,-5.092,-5.0932,-5.0799,-5.077,-5.0919,-5.0919,-5.0919,-5.0919,-5.0919,-5.0919,-4.9812,-4.9929,-4.996,-5.0109,-5.0162,-5.027,-5.0319,-5.0386,-5.0447,-5.0582,-5.0665,-5.071,-5.0784,-5.0894,-5.0987,-5.1005,-5.1043,-5.1065,-5.1082,-5.0956,-5.0941,-5.0926,-5.0899,-5.1073,-5.1073,-5.1208,-5.1209,-5.121]},{"header":{"parameterUnit":"m.s-1","parameterCategory":1,"la1":30.2991,"la2":30.254,"lo1":-89.0895,"lo2":-89.0444,"dy":0.0017,"dx":0.0017,"nx":28,"ny":28,"refTime":"2023-10-25T09:00:00:Z","depth":0,"parameterNumber":3,"parameterNumberName":"V-component_of_WINDS"},"data":[0,0,0,0,0,0,0,0,0,0,0,0,0,0,0,0,0,0,0,0,0,0,0,0,0,0,0,0,0,0,0,0,0,0,0,0,0,0,0,0,0,0,0,0,0,0,0,0,0,0,0,0,0,0,0,0,0,0,2.8545,2.8545,0,2.8532,2.8532,2.8532,2.85,2.85,2.8499,2.8499,2.8479,2.848,2.848,0,0,0,0,0,0,0,0,0,0,0,0,0,2.8541,2.8541,2.8545,2.8545,2.8545,2.8532,2.8532,2.8532,2.85,2.85,2.8499,2.8498,2.8479,2.848,2.848,0,0,0,0,0,0,0,0,0,0,0,0,0,2.8537,2.8542,2.8546,2.8528,2.8526,2.8532,2.8532,2.8532,2.8501,2.85,2.8499,2.8498,2.8479,2.848,2.848,2.85,0,0,2.848,2.848,0,0,0,0,0,0,0,0,2.8537,2.8537,2.8531,2.8529,2.8527,2.8517,2.8523,2.8521,2.8501,2.851,2.8498,2.8497,2.8492,2.8491,2.8491,2.8499,2.8498,2.848,2.848,2.848,2.848,0,0,0,0,0,0,0,2.8538,2.8537,2.854,2.8531,2.8529,2.852,2.8518,2.8523,2.8507,2.8509,2.8507,2.8506,2.8491,2.8491,2.849,2.8498,2.848,2.848,2.848,2.848,2.8525,2.8526,0,0,0,0,0,0,2.8541,2.8538,2.854,2.854,2.853,2.8521,2.8519,2.8521,2.8507,2.8504,2.8507,2.8505,2.8491,2.849,2.8489,2.8514,2.848,2.848,2.848,2.8524,2.8525,2.8526,0,0,0,0,0,0,2.8541,2.8541,2.8541,2.8538,2.8538,2.8522,2.8525,2.8522,2.8521,2.8505,2.8501,2.851,2.849,2.8489,2.8498,2.8513,2.848,2.848,2.8522,2.8524,2.8525,2.8562,0,0,0,0,0,0,2.8541,2.8542,2.8549,2.8539,2.8538,2.8551,2.8526,2.8522,2.8522,2.8519,2.8507,2.8503,2.8489,2.8498,2.8499,2.8512,2.8481,2.8521,2.8523,2.8525,2.8559,2.8564,2.8569,0,0,0,0,0,2.8541,2.8558,2.855,2.855,2.8547,2.8552,2.8551,2.8536,2.8523,2.8531,2.8521,2.8504,2.8511,2.85,2.8499,2.8513,2.852,2.8522,2.8525,2.8557,2.8563,2.8569,0,0,0,0,0,0,2.8568,2.8556,2.8547,2.8561,2.8559,2.8547,2.8555,2.8543,2.8542,2.8539,2.8519,2.8516,2.8529,2.8522,2.8509,2.8534,2.8513,2.8516,2.8538,2.8544,2.8548,2.8549,2.8481,0,0,0,0,0,2.8576,2.8582,2.8571,2.8585,2.8584,2.8571,2.8572,2.8561,2.8556,2.8554,2.8544,2.8539,2.8541,2.8542,2.8542,2.8559,2.8556,2.8568,2.8573,2.8577,2.858,2.859,2.8596,2.8534,2.8534,2.8534,0,0,2.8591,2.8586,2.859,2.859,2.8586,2.8593,2.8569,2.8576,2.858,2.8554,2.8563,2.8557,2.855,2.8564,2.8569,2.8558,2.8597,2.858,2.8584,2.8584,2.8594,2.8599,2.8605,2.8536,2.8536,2.8535,0,0,2.8624,2.862,2.8633,2.8631,2.8627,2.8618,2.8621,2.8613,2.8608,2.8618,2.8599,2.8604,2.8606,2.8603,2.8601,2.8637,2.8622,2.8638,2.8663,2.8674,2.8679,2.8683,2.8697,2.8702,2.864,2.864,2.864,0,2.8643,2.8653,2.864,2.865,2.8651,2.8631,2.8644,2.8641,2.8637,2.8638,2.8626,2.8632,2.8625,2.8639,2.8649,2.8648,2.8651,2.8638,2.8679,2.8683,2.8687,2.87,2.8706,2.8642,2.8642,2.8642,2.8642,0,2.8678,2.8686,2.8696,2.8696,2.8698,2.8709,2.8697,2.8701,2.8691,2.8684,2.8695,2.8688,2.8688,2.869,2.8679,2.8704,2.8698,2.8683,2.8662,2.8695,2.8708,2.8712,2.8645,2.8645,2.8644,2.8643,0,0,2.8724,2.872,2.8724,2.8725,2.8721,2.8726,2.8737,2.8739,2.8744,2.8742,2.8751,2.8756,2.8743,2.8742,2.8731,2.874,2.8772,2.8725,2.8724,2.8735,2.8801,2.8812,2.8818,2.8762,2.8763,2.8764,2.8802,0,2.8756,2.8776,2.8766,2.8786,2.8794,2.8777,2.8787,2.8786,2.878,2.8785,2.8778,2.8783,2.8765,2.8765,2.8774,2.8766,2.8785,2.8763,2.877,2.877,2.8773,2.8824,2.8835,2.8871,2.8806,2.8807,2.8807,0,2.8794,2.8798,2.8821,2.8819,2.8821,2.883,2.8834,2.8839,2.8837,2.8833,2.8834,2.8821,2.8832,2.8812,2.8827,2.8813,2.8815,2.8812,2.8813,2.8813,2.8791,2.8826,2.8882,2.8888,2.8814,2.8814,2.8813,0,2.8828,2.8838,2.8854,2.8855,2.8852,2.8859,2.8858,2.8856,2.886,2.8862,2.8864,2.8867,2.8868,2.8871,2.886,2.8846,2.8877,2.8855,2.8873,2.8874,2.8879,2.8879,2.8937,2.8881,2.8881,2.8881,2.8881,0,2.8864,2.8878,2.8869,2.8879,2.8895,2.8884,2.89,2.8897,2.8897,2.8905,2.889,2.8898,2.8883,2.889,2.8881,2.8896,2.8896,2.8892,2.889,2.8894,2.8895,2.8895,2.8892,2.8882,2.8882,2.8881,2.8881,0,2.8903,2.8897,2.8914,2.8912,2.8912,2.8924,2.8922,2.893,2.8925,2.8937,2.8939,2.893,2.8938,2.8928,2.8933,2.8927,2.8948,2.8941,2.8949,2.8947,2.8966,2.8965,2.9026,2.9035,2.8973,2.8973,2.8974,0,2.8926,2.8938,2.8939,2.8945,2.8946,2.8955,2.8959,2.895,2.8955,2.8956,2.8965,2.8972,2.8977,2.899,2.8984,2.8988,2.8982,2.9004,2.8982,2.8987,2.8984,2.8983,2.8985,2.9008,2.9008,2.9009,2.9009,0,2.897,2.8967,2.8975,2.8983,2.899,2.8995,2.8999,2.9004,2.8994,2.9001,2.901,2.9014,2.9022,2.9029,2.9033,2.9031,2.9019,2.9017,2.9021,2.9025,2.903,2.9029,2.8961,2.9015,2.9014,2.9014,2.9014,2.9013,2.9002,2.9013,2.9016,2.9026,2.9029,2.9034,2.9043,2.9041,2.9049,2.9057,2.905,2.9062,2.9062,2.9067,2.9067,2.9076,2.9066,2.9072,2.9074,2.9076,2.908,2.9029,2.9076,2.9076,2.9076,2.9076,2.9076,0,2.9046,2.9048,2.9058,2.9066,2.9074,2.9065,2.9069,2.9076,2.9088,2.909,2.9097,2.9109,2.9117,2.9113,2.912,2.9128,2.9122,2.913,2.9129,2.9129,2.9087,2.9083,2.9134,2.9134,2.9134,2.9134,2.9134,2.9134,2.9069,2.9088,2.9086,2.9107,2.9108,2.9121,2.9125,2.913,2.9133,2.9147,2.9155,2.9153,2.9154,2.9161,2.9169,2.9167,2.9171,2.918,2.9177,2.9137,2.9132,2.9126,2.9122,2.9181,2.9181,2.9219,2.9219,2.9219]}]]